{"data":{"norad_id":67821,"intl_designator":"2026-033A","name":"STARLINK-36644","alt_names":[],"object_type":"PAYLOAD","status":"ACTIVE","operator":null,"country":"US","launch_date":"2026-02-16","launch_site_code":"AFETR","launch_vehicle":null,"mission":null,"orbit_class":"UNKNOWN","rcs_meters":null,"size_class":null,"mass_kg":null,"dimensions":null,"purposes":["comms"],"wikipedia_slug":null,"has_3d_model":false,"image_url":null,"decayed_at":null,"tle_current":{"epoch":"2026-05-25T04:24:18.572256Z","epoch_age_seconds":60031,"freshness":"FRESH","line1":"1 67821U 26033A   26145.18354829  .00013592  00000+0  50220-3 0  9997","line2":"2 67821  42.9962 194.9818 0000526  77.9659 282.1251 15.27600125 16371","mean_motion":15.27600125,"eccentricity":5.26e-5,"inclination_deg":42.9962,"raan_deg":194.9818,"arg_perigee_deg":77.9659,"mean_anomaly_deg":282.1251,"bstar":0.0005022,"rev_number":1637,"period_min":94.26550681907,"perigee_km":482.62793999238,"apogee_km":483.34973043024,"semimajor_km":6861.1258352113,"source":"CELESTRAK","updated_at":"2026-05-25T13:38:21.697152Z"}}}